Location: El Bakhil
(32.7726°N, 5.5387°W)
Time: 08:26:51
(UTC+00:00)

Cosmos 968 Rocket - Visible Passes

Search period start: 16 June 2021 00:00
Search period end: 26 June 2021 00:00
Orbit: 741 x 770 km, 74.0° (Epoch: 16 June)

Date Brightness Start Highest point End Pass type
(mag) Time Alt. Az. Time Alt. Az. Time Alt. Az.
16 Jun 6.1 00:53:30 10° WNW 00:53:35 10° WNW 00:53:35 10° WNW visible
16 Jun 5.0 22:29:58 10° NNE 22:33:31 24° NE 22:33:31 24° NE visible
17 Jun 5.4 00:11:24 10° NW 00:13:31 21° WNW 00:13:31 21° WNW visible
17 Jun 5.6 21:50:52 10° NE 21:53:03 13° ENE 21:53:28 12° ENE visible
17 Jun 4.6 23:30:11 10° NNW 23:33:28 39° NW 23:33:28 39° NW visible
18 Jun 4.1 22:49:26 10° N 22:53:27 51° NNE 22:53:27 51° NNE visible
19 Jun 4.5 22:09:07 10° N 22:13:27 32° ENE 22:13:27 32° ENE visible
19 Jun 5.6 23:51:20 10° NW 23:53:27 19° WNW 23:53:27 19° WNW visible
20 Jun 5.2 21:29:24 10° NNE 21:32:43 17° ENE 21:33:29 17° ENE visible
20 Jun 4.6 23:09:50 10° NNW 23:13:29 38° WNW 23:13:29 38° WNW visible
21 Jun 3.5 22:28:53 10° NNW 22:33:33 74° NNW 22:33:33 74° NNW visible
22 Jun 3.9 21:48:22 10° N 21:53:16 44° ENE 21:53:39 43° E visible
22 Jun 5.7 23:31:31 10° WNW 23:33:39 15° W 23:33:39 15° W visible
23 Jun 4.9 21:08:19 10° NNE 21:12:20 23° ENE 21:13:47 20° E visible
23 Jun 4.7 22:49:34 10° NW 22:53:47 32° W 22:53:47 32° W visible
24 Jun 5.5 20:29:26 10° NE 20:31:16 12° ENE 20:33:07 10° E visible
24 Jun 3.5 22:08:25 10° NNW 22:13:31 67° WSW 22:13:57 63° SW visible
25 Jun 3.5 21:27:42 10° N 21:32:47 61° ENE 21:34:08 45° SE visible
25 Jun 5.9 23:12:21 10° WNW 23:13:56 11° W 23:14:09 11° W visible
